Regional Weather Roundup
Issued by NWS

Home | Current Version | Previous Version | Text Only | Print | Product List | Glossary Off
Versions: 1 2 3 4 5 6 7 8 9 10 11 12 13 14 15 16 17 18 19 20 21 22 23 24 25 26 27 28 29 30 31 32 33 34 35 36 37 38 39 40 41 42 43 44 45 46 47 48 49 50

474
ASUS45 KSLC 201710
RWRUT

UTAH REGIONAL WEATHER ROUNDUP
NATIONAL WEATHER SERVICE SALT LAKE CITY UT
1100 AM MDT THU JUL 20 2017

UTZ001>011-023>025-201800-

NORTHERN UTAH

CITY           SKY/WX    TMP DP  RH WIND       PRES   REMARKS
BRIGHAM CITY   MOSUNNY   83  51  33 CALM      30.10R
DUGWAY         MOSUNNY   86  53  31 S15G21    30.09
HILL AFB       SUNNY     85  54  33 S14       30.12F
LOGAN          MOSUNNY   83  55  38 VRB5      30.09F
OGDEN          SUNNY     88  53  30 S15       30.08F
SALT LAKE CITY PTSUNNY   88  55  32 S16G26    30.08S
TOOELE VALLEY  SUNNY     88  55  33 S23G32    30.08F
WENDOVER       SUNNY     86  55  34 E8        30.06F
HEBER CITY     PTSUNNY   77  52  41 CALM      30.21S
WEST JORDAN    SUNNY     83  64  51 S17       30.13S

$$

UTZ011>015-024>027-201800-

CENTRAL/NORTHEAST UTAH

CITY           SKY/WX    TMP DP  RH WIND       PRES   REMARKS
PROVO AIRPORT  PTSUNNY   81  57  43 VRB6      30.16S
MOAB/CANYONLAN MOSUNNY   85  56  37 SE5       30.16R
DELTA          PTSUNNY   81  54  39 S23G30    30.17R
PRICE          SUNNY     82  52  35 S7        30.26S
ROOSEVELT      SUNNY     77  57  50 E5        30.26S
VERNAL         SUNNY     75  62  64 SE6       30.24F

$$

UTZ013>016-019>022-027-201800-

SOUTHERN UTAH

CITY           SKY/WX    TMP DP  RH WIND       PRES   REMARKS
BRYCE CANYON   SUNNY     73  54  51 SE10      30.41S
CEDAR CITY     CLOUDY    79  54  41 SW14      30.25F
MILFORD        CLOUDY    78  59  51 SW15      30.20
ST GEORGE      PTSUNNY   86  62  44 CALM      30.10S
HANKSVILLE     SUNNY     86  52  30 S7        30.17S
BLANDING       SUNNY     78  53  42 S6        30.38S

$$

REGIONAL REPORTS     COLORADO/ARIZONA

CITY           SKY/WX    TMP DP  RH WIND       PRES   REMARKS
CRAIG, CO      MOSUNNY   79  51  37 NE3       30.31S
GRAND JUNCTION SUNNY     84  58  40 SE13      30.19F
RIFLE, CO      SUNNY     79  56  45 NW5       30.25F
MONTROSE, CO   SUNNY     81  52  36 CALM      30.27
CORTEZ, CO     SUNNY     83  52  34 VRB3      30.29S
COLORADO CITY    N/A     79  61  53 CALM      30.27S
PAGE, AZ       SUNNY     87  56  34 N6        30.18S
GRAND CANYON   MOSUNNY   73  57  57 VRB5      30.37S
KINGMAN, AZ    MOSUNNY   86  61  42 W6        30.14
FLAGSTAFF, AZ  MOSUNNY   70  59  68 SW9       30.40S

$$

REGIONAL REPORTS    NEVADA/IDAHO/WYOMING

CITY           SKY/WX    TMP DP  RH WIND       PRES   REMARKS
LAS VEGAS, NV  CLOUDY    87  67  51 E5        30.02R HX  90
ELY, NY        SUNNY     78  50  37 CALM      30.25F
ELKO, NV       SUNNY     79  27  14 SW12      30.15S
POCATELLO, ID  MOSUNNY   85  41  21 W10       30.09F
BURLEY, ID       N/A     74  36  25 W9        30.08R
FORT BRIDGER,    N/A     76  48  37 CALM      30.34F
EVANSTON, WY   CLOUDY    75  50  41 SW10      30.31F
ROCK SPRINGS,  CLOUDY    75  48  38 SW6       30.30F
KEMMERER, WY     N/A     73  46  38 SW6       30.34S

$$




USA.gov is the U.S. government's official web portal to all federal, state and local government web resources and services.